Location: Tehran
(35.6961°N, 51.4231°E)
Time: 01:27:53
(UTC+04:30)

ISS - Visible Passes

Search period start: 28 June 2017 00:00
Search period end: 08 July 2017 00:00
Orbit: 401 x 408 km, 51.6° (Epoch: 28 June)

Date Brightness Start Highest point End Pass type
(mag) Time Alt. Az. Time Alt. Az. Time Alt. Az.
02 Jul -1.2 05:04:53 10° SSE 05:06:34 13° SE 05:08:15 10° E visible
04 Jul -2.7 04:55:35 12° SSW 04:58:14 36° SE 05:01:16 10° ENE visible
05 Jul -1.7 04:05:30 16° SE 04:06:07 17° SE 04:08:21 10° E visible
06 Jul -3.8 04:47:59 21° SW 04:50:01 75° NW 04:53:18 10° NE visible
07 Jul -3.4 03:57:45 48° SE 03:57:46 48° SE 04:00:55 10° ENE visible
